This is the latest recevied weather packets stored in our database for station/object KA3RQR. If no packets are shown the sender has not sent any weather packets the latest 10 day(s).
| Time | Temp. | Humidity | Pressure | Rain* | Wind** | Luminosity | Snow |
|---|---|---|---|---|---|---|---|
| 1777412463 | 16.11° C | 73% | 1017 hPa | 0 mm | - | 57 W/m² | - |
| 1777412161 | 16.11° C | 71% | 1017 hPa | 0 mm | - | 54 W/m² | - |
| 1777411857 | 16.11° C | 71% | 1017.2 hPa | 0 mm | - | 55 W/m² | - |
| 1777411556 | 16.11° C | 71% | 1017.1 hPa | 0 mm | - | 69 W/m² | - |
| 1777411250 | 16.11° C | 71% | 1017 hPa | 0 mm | - | 57 W/m² | - |
| 1777410945 | 16.11° C | 70% | 1017.1 hPa | 0 mm | - | 46 W/m² | - |
| 1777410645 | 16.11° C | 71% | 1017.1 hPa | 0 mm | - | 44 W/m² | - |
| 1777410340 | 16.11° C | 71% | 1017.2 hPa | 0 mm | - | 60 W/m² | - |
| 1777410033 | 16.11° C | 71% | 1017.1 hPa | 0 mm | - | 43 W/m² | - |
| 1777409728 | 16.11° C | 70% | 1017.2 hPa | 0 mm | - | 47 W/m² | - |
| 1777409425 | 16.11° C | 72% | 1017.3 hPa | 0 mm | - | 51 W/m² | - |
| 1777409121 | 16.11° C | 71% | 1017.1 hPa | 0 mm | - | 56 W/m² | - |
| 1777408816 | 16.11° C | 70% | 1017.2 hPa | 0 mm | - | 49 W/m² | - |
| 1777408512 | 16.11° C | 71% | 1017.2 hPa | 0 mm | - | 51 W/m² | - |
| 1777408207 | 16.11° C | 71% | 1017.1 hPa | 0 mm | - | 57 W/m² | - |
| 1777407902 | 16.11° C | 72% | 1017.4 hPa | 0 mm | - | 76 W/m² | - |
| 1777407601 | 16.11° C | 71% | 1017.5 hPa | 0 mm | - | 58 W/m² | - |
| 1777407300 | 16.11° C | 71% | 1017.4 hPa | 0 mm | - | 72 W/m² | - |
| 1777406995 | 16.11° C | 70% | 1017.5 hPa | 0 mm | - | 85 W/m² | - |
| 1777406690 | 16.11° C | 71% | 1017.5 hPa | 0 mm | - | 99 W/m² | - |
| 1777406386 | 16.11° C | 71% | 1017.6 hPa | 0 mm | - | 87 W/m² | - |
| 1777406085 | 15.56° C | 71% | 1017.6 hPa | 0 mm | - | 92 W/m² | - |
| 1777405781 | 15.56° C | 71% | 1017.5 hPa | 0 mm | - | 85 W/m² | - |
| 1777405478 | 15.56° C | 70% | 1017.5 hPa | 0 mm | - | 134 W/m² | - |
| 1777405176 | 15.56° C | 70% | 1017.5 hPa | 0 mm | - | 134 W/m² | - |
* Rain latest hour (hover to see other rain measurements)
** Current wind speed in m/s (hover to see current wind gust speed)